Flag for Nigeria Weather past 2 weeks in Lagos, Nigeria

Now
81 °F

Thunderstorms. Passing clouds.


Feels Like: 88 °F
Forecast: 76 / 91 °F
Wind: 2 mph from North

Location: Lagos / Ikeja

Current Time: May 23, 2015 at 6:08:40 AM

Latest Report: May 23, 2015 at 5:00 AM


Visibility: 5 mi

Pressure: 29.86 "Hg

Humidity: 94%

Dew point: 79 °F

Location of LagosLocation

Historic Weather in Lagos — Graph

°F

Lagos temperature yesterday

Maximum temperature yesterday: 93 °F (at 1:00 PM)
Minimum temperature yesterday: 79 °F (at 6:00 AM)
Average temperature yesterday: 85 °F

Past Weeks' High & Low Weather Summary

 TemperatureHumidityPressure
High93 °F (May 8, 1:00 PM)100% (May 8, 7:00 AM)29.95 "Hg (May 8, 7:00 AM)
Low73 °F (May 13, 9:00 PM)55% (May 12, 4:00 PM)29.77 "Hg (May 13, 4:00 PM)
Average84 °F83%29.87 "Hg
* Reported May 8 5:00 AM — May 23 5:00 AM, Lagos, Weather by CustomWeather, © 2015

Note: Actual official high and low records may vary slightly from our data, if they occured in-between our weather recording intervals... More about our weather records

Advertising

Lagos weather history for previous 24 hours

 ConditionsComfort  
Time TempWeatherWind HumidityBarometerVisibility
5:00 AM
Sat, May 23
81 °FThunderstorms. Passing clouds.2 mph94%29.86 "Hg5 mi
4:00 AM82 °FThunderstorms. Passing clouds.2 mph89%29.86 "HgN/A
3:00 AM82 °FThunderstorms. Passing clouds.2 mph89%29.89 "HgN/A
2:00 AM82 °FThunderstorms. Passing clouds.2 mph89%29.89 "HgN/A
1:00 AM82 °FPassing clouds.5 mph89%29.89 "HgN/A
12:00 AM82 °FPassing clouds.5 mph89%29.89 "HgN/A
11:00 PM
Fri, May 22
82 °FThunderstorms. Passing clouds.6 mph89%29.92 "HgN/A
10:00 PM84 °FThunderstorms. Passing clouds.5 mph84%29.92 "HgN/A
9:00 PM84 °FThunderstorms. Passing clouds.5 mph84%29.89 "HgN/A
8:00 PM84 °FThunderstorms. Passing clouds.6 mph84%29.89 "HgN/A
7:00 PM86 °FPassing clouds.7 mph79%29.83 "HgN/A
6:00 PM86 °FScattered clouds.12 mph79%29.83 "HgN/A
5:00 PM88 °FScattered clouds.8 mph70%29.83 "HgN/A
4:00 PM88 °FScattered clouds.9 mph75%29.83 "HgN/A
3:00 PM91 °FScattered clouds.15 mph67%29.83 "HgN/A
2:00 PM93 °FScattered clouds.8 mph63%29.89 "HgN/A
1:00 PM93 °FScattered clouds.7 mph67%29.89 "HgN/A
12:00 PM91 °FScattered clouds.8 mph67%29.92 "HgN/A
11:00 AM90 °FScattered clouds.7 mph75%29.92 "HgN/A
10:00 AM86 °FScattered clouds.6 mph84%29.95 "HgN/A
9:00 AM84 °FScattered clouds.2 mph84%29.92 "Hg4 mi
8:00 AM82 °FScattered clouds.3 mph89%29.92 "Hg4 mi
7:00 AM81 °FPartly sunny.10 mph94%29.89 "Hg4 mi
6:00 AM79 °FPassing clouds.2 mph94%29.89 "HgN/A
Weather by CustomWeather, © 2015

See weather overviewHow to use our weather pages